This demonstration page uses our WeatherBlox Daily Observations layout. Learn more.

Left ArrowRight Arrow

40.92945, -100.16068

Hourly Observations for September 9, 2017

Temp ( °F °C ) Dew Point ( °F °C ) Humidity (%) Winds ( mph kmh ) Pressure ( in mb ) Visibility ( mi km ) Precip ( " mm )
12:15 am 00:15 Clear 69 20.6 51 10.5 53 53 SE 10 17 29.97 1015 10 16 0.00 0.00
12:35 am 00:35 Clear 69 20.6 50 10.2 51 51 SE 12 19 29.94 1014 10 16 0.00 0.00
12:55 am 00:55 Clear 69 20.6 50 10.2 51 51 SE 12 19 29.97 1015 10 16 0.00 0.00
1:15 am 01:15 Clear 69 20.5 50 10.1 51 51 SSE 13 20 29.97 1015 10 16 0.00 0.00
1:35 am 01:35 Clear 69 20.4 50 10 51 51 SSE 12 19 30.00 1016 10 16 0.00 0.00
1:55 am 01:55 Clear 68 20 50 10 53 53 SSE 12 19 30.00 1016 10 16 0.00 0.00
2:15 am 02:15 Clear 68 20 50 10 53 53 SSE 13 20 29.97 1015 10 16 0.00 0.00
2:35 am 02:35 Clear 68 20.2 50 9.9 52 52 SSE 14 22 30.00 1016 10 16 0.00 0.00
2:55 am 02:55 Clear 68 20 50 9.9 52 52 SSE 14 22 30.00 1016 10 16 0.00 0.00
3:15 am 03:15 Clear 68 20 49 9.7 52 52 SSE 15 24 30.00 1016 10 16 0.00 0.00
3:35 am 03:35 Clear 68 19.9 49 9.6 52 52 SSE 14 22 30.00 1016 10 16 0.00 0.00
3:55 am 03:55 Clear 68 20 49 9.5 51 51 SSE 14 22 30.00 1016 10 16 0.00 0.00
4:15 am 04:15 Clear 68 19.8 49 9.6 52 52 SSE 15 24 30.00 1016 10 16 0.00 0.00
4:35 am 04:35 Clear 67 19.5 49 9.5 53 53 SSE 10 17 30.00 1016 10 16 0.00 0.00
4:55 am 04:55 Clear 67 19.2 49 9.5 54 54 SSE 13 20 30.00 1016 10 16 0.00 0.00
5:15 am 05:15 Clear 66 19 49 9.6 55 55 SSE 10 17 30.00 1016 10 16 0.00 0.00
5:35 am 05:35 Clear 66 19 49 9.6 55 55 SSE 12 19 30.00 1016 10 16 0.00 0.00
5:55 am 05:55 Clear 66 18.7 49 9.5 55 55 SSE 8 13 30.00 1016 10 16 0.00 0.00
6:15 am 06:15 Clear 65 18.4 49 9.6 57 57 SSE 10 17 30.00 1016 10 16 0.00 0.00
6:35 am 06:35 Clear 65 18.5 49 9.6 56 56 SSE 12 19 30.00 1016 10 16 0.00 0.00
6:55 am 06:55 Clear 65 18.4 49 9.6 57 57 S 14 22 30.00 1016 10 16 0.00 0.00
7:15 am 07:15 Sunny 65 18.2 49 9.7 58 58 SSE 15 24 30.00 1016 10 16 0.00 0.00
7:35 am 07:35 Sunny with Nearby Thunderstorms 64 17.9 50 9.9 60 60 SSE 13 20 30.00 1016 10 16 0.00 0.00
7:55 am 07:55 Sunny with Nearby Thunderstorms 64 17.9 51 10.3 61 61 SSE 10 17 30.00 1016 10 16 0.00 0.00
8:15 am 08:15 Sunny with Thunderstorms 65 18.3 51 10.5 61 61 S 10 17 30.00 1016 10 16 0.00 0.00
8:35 am 08:35 Sunny 65 18.1 52 10.9 63 63 NW 8 13 30.06 1018 10 16 0.00 0.00
8:55 am 08:55 Sunny with Nearby Thunderstorms 63 17 53 11.9 72 72 N 6 9 30.09 1019 10 16 0.00 0.00
9:15 am 09:15 Mostly Cloudy with Thunderstorms 64 17.7 52 11.1 65 65 Calm 30.06 1018 10 16 0.00 0.00
9:35 am 09:35 Mostly Cloudy 62 16.4 55 12.6 78 78 ESE 7 11 30.09 1019 10 16 0.00 0.00
9:55 am 09:55 Cloudy 62 16.9 55 12.6 76 76 ENE 5 7 30.12 1020 10 16 0.00 0.00
10:15 am 10:15 Mostly Cloudy with Drizzle 62 16.5 56 13.5 83 83 SE 7 11 30.12 1020 10 16 0.00 0.00
10:35 am 10:35 Mostly Cloudy with Light Rain 62 16.8 55 12.7 77 77 ESE 5 7 30.15 1021 10 16 0.00 0.00
10:55 am 10:55 Cloudy with Light Rain 61 16.2 56 13.2 83 83 E 8 13 30.12 1020 10 16 0.01 0.25
11:15 am 11:15 Cloudy with Light Rain 62 16.4 56 13.1 81 81 ESE 10 17 30.12 1020 10 16 0.01 0.25
11:35 am 11:35 Cloudy with Rain 60 15.7 56 13.6 87 87 ENE 9 15 30.12 1020 7 11 0.04 1.02
11:55 am 11:55 Cloudy with Strong Thunderstorms 60 15.6 56 13.6 88 88 E 9 15 30.15 1021 5 8 0.08 2.03
12:15 pm 12:15 Windy with Storms Likely 60 15.8 56 13.6 87 87 ESE 20 31 30.09 1019 3 5 0.17 4.32
12:35 pm 12:35 Partly Cloudy with Thunderstorms 63 17 57 13.7 81 81 SE 22 35 30.06 1018 10 16 0.17 4.32
12:55 pm 12:55 Sunny 64 17.6 57 14.1 80 80 SE 17 28 30.03 1017 10 16 0.17 4.32
1:15 pm 13:15 Sunny 67 19.3 58 14.3 73 73 SE 18 30 30.03 1017 10 16 0.00 0.00
1:35 pm 13:35 Sunny 69 20.4 58 14.5 69 69 SE 20 31 30.03 1017 10 16 0.00 0.00
1:55 pm 13:55 Sunny with Nearby Thunderstorms 71 21.9 58 14.2 62 62 SE 21 33 30.00 1016 10 16 0.00 0.00
2:15 pm 14:15 Sunny 72 22.1 57 13.9 60 60 SSE 24 39 29.97 1015 10 16 0.00 0.00
2:35 pm 14:35 Sunny 73 22.7 57 13.8 57 57 SSE 21 33 29.97 1015 10 16 0.00 0.00
2:55 pm 14:55 Sunny with Nearby Thunderstorms 74 23.5 57 14.1 56 56 SSE 21 33 29.97 1015 10 16 0.00 0.00
3:15 pm 15:15 Sunny with Nearby Thunderstorms 75 24.1 57 14 53 53 SE 22 35 29.91 1013 10 16 0.00 0.00
3:35 pm 15:35 Sunny 75 24 57 14 54 54 SSE 22 35 29.91 1013 10 16 0.00 0.00
3:55 pm 15:55 Sunny 76 24.7 58 14.3 52 52 SE 20 31 29.91 1013 10 16 0.00 0.00
4:15 pm 16:15 Sunny 78 25.4 58 14.2 50 50 SSE 20 31 29.91 1013 10 16 0.00 0.00
4:35 pm 16:35 Sunny 79 26.1 58 14.2 48 48 SSE 18 30 29.91 1013 10 16 0.00 0.00
4:55 pm 16:55 Sunny 82 27.7 58 14.5 44 44 SSE 14 22 29.88 1012 10 16 0.00 0.00
5:15 pm 17:15 Sunny 82 27.9 55 12.8 39 39 SSE 17 28 29.88 1012 10 16 0.00 0.00
5:35 pm 17:35 Sunny 83 28.5 53 11.7 35 35 SSE 16 26 29.88 1012 10 16 0.00 0.00
5:55 pm 17:55 Sunny 82 28 52 11.3 35 35 SSE 20 31 29.88 1012 10 16 0.00 0.00
6:15 pm 18:15 Sunny 82 27.6 53 11.8 37 37 SSE 17 28 29.88 1012 10 16 0.00 0.00
6:35 pm 18:35 Sunny 81 27.2 53 11.4 37 37 SSE 17 28 29.91 1013 10 16 0.00 0.00
6:55 pm 18:55 Sunny 80 26.5 52 11.3 39 39 SSE 15 24 29.91 1013 10 16 0.00 0.00
7:15 pm 19:15 Sunny 79 26 52 11.1 39 39 SSE 15 24 29.91 1013 10 16 0.00 0.00
7:35 pm 19:35 Sunny 77 25.2 52 11.3 42 42 SSE 13 20 29.91 1013 10 16 0.00 0.00
7:55 pm 19:55 Sunny 76 24.3 53 11.8 46 46 SE 12 19 29.91 1013 10 16 0.00 0.00
8:15 pm 20:15 Clear 74 23.5 53 11.7 48 48 SE 13 20 29.94 1014 10 16 0.00 0.00
8:35 pm 20:35 Clear 74 23.1 53 11.5 48 48 SE 13 20 29.94 1014 10 16 0.00 0.00
8:55 pm 20:55 Clear 72 22.3 53 11.7 51 51 SE 12 19 29.94 1014 10 16 0.00 0.00
9:15 pm 21:15 Clear 71 21.6 53 11.7 53 53 SSE 14 22 29.94 1014 10 16 0.00 0.00
9:35 pm 21:35 Clear 71 21.5 53 11.5 53 53 SSE 15 24 29.94 1014 10 16 0.00 0.00
9:55 pm 21:55 Clear 71 21.7 52 11.1 51 51 SSE 15 24 29.94 1014 10 16 0.00 0.00
10:15 pm 22:15 Clear 71 21.9 52 11 50 50 SSE 18 30 29.94 1014 10 16 0.00 0.00
10:35 pm 22:35 Clear 71 21.9 51 10.8 49 49 SSE 16 26 29.97 1015 10 16 0.00 0.00
10:55 pm 22:55 Clear 71 21.7 51 10.6 49 49 SSE 17 28 29.97 1015 10 16 0.00 0.00
11:15 pm 23:15 Clear 71 21.6 51 10.6 50 50 SSE 17 28 29.97 1015 10 16 0.00 0.00
11:35 pm 23:35 Clear 70 21.3 51 10.6 51 51 SSE 15 24 29.97 1015 10 16 0.00 0.00
11:55 pm 23:55 Clear 71 21.4 51 10.5 50 50 SSE 20 31 29.97 1015 10 16 0.00 0.00

Powered by AerisWeather